Year,Month,Day,Hour,Minute,Value (Times are PST for temperature in C)
2008,08,15,00,00,19.40
2008,08,15,00,01,19.40
2008,08,15,00,02,19.40
2008,08,15,00,03,19.40
2008,08,15,00,04,19.40
2008,08,15,00,05,19.40
2008,08,15,00,06,19.30
2008,08,15,00,07,19.30
2008,08,15,00,08,19.30
2008,08,15,00,09,19.30
2008,08,15,00,10,19.30
2008,08,15,00,11,19.30
2008,08,15,00,12,19.30
2008,08,15,00,13,19.30
2008,08,15,00,14,19.30
2008,08,15,00,15,19.30
2008,08,15,00,16,19.20
2008,08,15,00,17,19.20
2008,08,15,00,18,19.20
2008,08,15,00,19,19.20
2008,08,15,00,20,19.20
2008,08,15,00,21,19.20
2008,08,15,00,22,19.20
2008,08,15,00,23,19.10
2008,08,15,00,24,19.10
2008,08,15,00,25,19.10
2008,08,15,00,26,19.10
2008,08,15,00,27,19.10
2008,08,15,00,28,19.10
2008,08,15,00,29,19.10
2008,08,15,00,30,19.00
2008,08,15,00,31,19.00
2008,08,15,00,32,19.00
2008,08,15,00,33,18.90
2008,08,15,00,34,18.90
2008,08,15,00,35,18.90
2008,08,15,00,36,18.90
2008,08,15,00,37,18.90
2008,08,15,00,38,18.90
2008,08,15,00,39,18.90
2008,08,15,00,40,18.90
2008,08,15,00,41,18.90
2008,08,15,00,42,18.90
2008,08,15,00,43,18.90
2008,08,15,00,44,18.80
2008,08,15,00,45,18.80
2008,08,15,00,46,18.80
2008,08,15,00,47,18.80
2008,08,15,00,48,18.80
2008,08,15,00,49,18.80
2008,08,15,00,50,18.80
2008,08,15,00,51,18.70
2008,08,15,00,52,18.70
2008,08,15,00,53,18.70
2008,08,15,00,54,18.70
2008,08,15,00,55,18.70
2008,08,15,00,56,18.70
2008,08,15,00,57,18.70
2008,08,15,00,58,18.70
2008,08,15,00,59,18.70
2008,08,15,01,00,18.60
2008,08,15,01,01,18.60
2008,08,15,01,02,18.60
2008,08,15,01,03,18.60
2008,08,15,01,04,18.60
2008,08,15,01,05,18.60
2008,08,15,01,06,18.60
2008,08,15,01,07,18.60
2008,08,15,01,08,18.60
2008,08,15,01,09,18.60
2008,08,15,01,10,18.50
2008,08,15,01,11,18.50
2008,08,15,01,12,18.50
2008,08,15,01,13,18.40
2008,08,15,01,14,18.40
2008,08,15,01,15,18.40
2008,08,15,01,16,18.40
2008,08,15,01,17,18.40
2008,08,15,01,18,18.40
2008,08,15,01,19,18.40
2008,08,15,01,20,18.40
2008,08,15,01,21,18.40
2008,08,15,01,22,18.40
2008,08,15,01,23,18.40
2008,08,15,01,24,18.40
2008,08,15,01,25,18.40
2008,08,15,01,26,18.30
2008,08,15,01,27,18.30
2008,08,15,01,28,18.30
2008,08,15,01,29,18.30
2008,08,15,01,30,18.30
2008,08,15,01,31,18.30
2008,08,15,01,32,18.30
2008,08,15,01,33,18.30
2008,08,15,01,34,18.30
2008,08,15,01,35,18.30
2008,08,15,01,36,18.20
2008,08,15,01,37,18.20
2008,08,15,01,38,18.20
2008,08,15,01,39,18.20
2008,08,15,01,40,18.20
2008,08,15,01,41,18.20
2008,08,15,01,42,18.20
2008,08,15,01,43,18.20
2008,08,15,01,44,18.20
2008,08,15,01,45,18.20
2008,08,15,01,46,18.20
2008,08,15,01,47,18.10
2008,08,15,01,48,18.10
2008,08,15,01,49,18.10
2008,08,15,01,50,18.10
2008,08,15,01,51,18.10
2008,08,15,01,52,18.10
2008,08,15,01,53,18.10
2008,08,15,01,54,18.10
2008,08,15,01,55,18.10
2008,08,15,01,56,18.10
2008,08,15,01,57,18.10
2008,08,15,01,58,18.10
2008,08,15,01,59,18.10
2008,08,15,02,00,18.10
2008,08,15,02,01,18.10
2008,08,15,02,02,18.10
2008,08,15,02,03,18.10
2008,08,15,02,04,18.10
2008,08,15,02,05,18.10
2008,08,15,02,06,18.10
2008,08,15,02,07,18.10
2008,08,15,02,08,18.10
2008,08,15,02,09,18.10
2008,08,15,02,10,18.00
2008,08,15,02,11,18.00
2008,08,15,02,12,18.00
2008,08,15,02,13,17.90
2008,08,15,02,14,17.90
2008,08,15,02,15,17.90
2008,08,15,02,16,17.90
2008,08,15,02,17,17.90
2008,08,15,02,18,17.90
2008,08,15,02,19,17.90
2008,08,15,02,20,17.90
2008,08,15,02,21,17.90
2008,08,15,02,22,17.90
2008,08,15,02,23,17.90
2008,08,15,02,24,17.90
2008,08,15,02,25,17.90
2008,08,15,02,26,17.90
2008,08,15,02,27,17.80
2008,08,15,02,28,17.80
2008,08,15,02,29,17.80
2008,08,15,02,30,17.80
2008,08,15,02,31,17.80
2008,08,15,02,32,17.80
2008,08,15,02,33,17.80
2008,08,15,02,34,17.80
2008,08,15,02,35,17.80
2008,08,15,02,36,17.80
2008,08,15,02,37,17.70
2008,08,15,02,38,17.70
2008,08,15,02,39,17.70
2008,08,15,02,40,17.70
2008,08,15,02,41,17.70
2008,08,15,02,42,17.60
2008,08,15,02,43,17.60
2008,08,15,02,44,17.60
2008,08,15,02,45,17.60
2008,08,15,02,46,17.60
2008,08,15,02,47,17.60
2008,08,15,02,48,17.60
2008,08,15,02,49,17.60
2008,08,15,02,50,17.60
2008,08,15,02,51,17.60
2008,08,15,02,52,17.60
2008,08,15,02,53,17.60
2008,08,15,02,54,17.60
2008,08,15,02,55,17.60
2008,08,15,02,56,17.60
2008,08,15,02,57,17.60
2008,08,15,02,58,17.60
2008,08,15,02,59,17.60
2008,08,15,03,00,17.60
2008,08,15,03,01,17.60
2008,08,15,03,02,17.60
2008,08,15,03,03,17.50
2008,08,15,03,04,17.50
2008,08,15,03,05,17.50
2008,08,15,03,06,17.60
2008,08,15,03,07,17.50
2008,08,15,03,08,17.50
2008,08,15,03,09,17.60
2008,08,15,03,10,17.60
2008,08,15,03,11,17.60
2008,08,15,03,12,17.50
2008,08,15,03,13,17.60
2008,08,15,03,14,17.60
2008,08,15,03,15,17.60
2008,08,15,03,16,17.50
2008,08,15,03,17,17.50
2008,08,15,03,18,17.50
2008,08,15,03,19,17.50
2008,08,15,03,20,17.50
2008,08,15,03,21,17.50
2008,08,15,03,22,17.50
2008,08,15,03,23,17.50
2008,08,15,03,24,17.50
2008,08,15,03,25,17.50
2008,08,15,03,26,17.50
2008,08,15,03,27,17.50
2008,08,15,03,28,17.50
2008,08,15,03,29,17.50
2008,08,15,03,30,17.50
2008,08,15,03,31,17.50
2008,08,15,03,32,17.50
2008,08,15,03,33,17.50
2008,08,15,03,34,17.50
2008,08,15,03,35,17.50
2008,08,15,03,36,17.50
2008,08,15,03,37,17.40
2008,08,15,03,38,17.40
2008,08,15,03,39,17.40
2008,08,15,03,40,17.40
2008,08,15,03,41,17.40
2008,08,15,03,42,17.40
2008,08,15,03,43,17.40
2008,08,15,03,44,17.40
2008,08,15,03,45,17.40
2008,08,15,03,46,17.40
2008,08,15,03,47,17.40
2008,08,15,03,48,17.40
2008,08,15,03,49,17.40
2008,08,15,03,50,17.40
2008,08,15,03,51,17.40
2008,08,15,03,52,17.40
2008,08,15,03,53,17.40
2008,08,15,03,54,17.40
2008,08,15,03,55,17.40
2008,08,15,03,56,17.40
2008,08,15,03,57,17.40
2008,08,15,03,58,17.40
2008,08,15,03,59,17.40
2008,08,15,04,00,17.40
2008,08,15,04,01,17.40
2008,08,15,04,02,17.30
2008,08,15,04,03,17.30
2008,08,15,04,04,17.30
2008,08,15,04,05,17.30
2008,08,15,04,06,17.30
2008,08,15,04,07,17.30
2008,08,15,04,08,17.30
2008,08,15,04,09,17.30
2008,08,15,04,10,17.30
2008,08,15,04,11,17.30
2008,08,15,04,12,17.20
2008,08,15,04,13,17.20
2008,08,15,04,14,17.20
2008,08,15,04,15,17.20
2008,08,15,04,16,17.20
2008,08,15,04,17,17.20
2008,08,15,04,18,17.20
2008,08,15,04,19,17.20
2008,08,15,04,20,17.20
2008,08,15,04,21,17.20
2008,08,15,04,22,17.20
2008,08,15,04,23,17.20
2008,08,15,04,24,17.20
2008,08,15,04,25,17.20
2008,08,15,04,26,17.20
2008,08,15,04,27,17.20
2008,08,15,04,28,17.20
2008,08,15,04,29,17.20
2008,08,15,04,30,17.20
2008,08,15,04,31,17.20
2008,08,15,04,32,17.20
2008,08,15,04,33,17.20
2008,08,15,04,34,17.20
2008,08,15,04,35,17.20
2008,08,15,04,36,17.20
2008,08,15,04,37,17.20
2008,08,15,04,38,17.10
2008,08,15,04,39,17.10
2008,08,15,04,40,17.10
2008,08,15,04,41,17.10
2008,08,15,04,42,17.10
2008,08,15,04,43,17.10
2008,08,15,04,44,17.10
2008,08,15,04,45,17.10
2008,08,15,04,46,17.10
2008,08,15,04,47,17.10
2008,08,15,04,48,17.10
2008,08,15,04,49,17.10
2008,08,15,04,50,17.10
2008,08,15,04,51,17.00
2008,08,15,04,52,17.00
2008,08,15,04,53,17.10
2008,08,15,04,54,17.10
2008,08,15,04,55,17.10
2008,08,15,04,56,17.10
2008,08,15,04,57,17.10
2008,08,15,04,58,17.10
2008,08,15,04,59,17.10
2008,08,15,05,00,17.10
2008,08,15,05,01,17.10
2008,08,15,05,02,17.10
2008,08,15,05,03,17.10
2008,08,15,05,04,17.10
2008,08,15,05,05,17.10
2008,08,15,05,06,17.10
2008,08,15,05,07,17.10
2008,08,15,05,08,17.10
2008,08,15,05,09,17.10
2008,08,15,05,10,17.10
2008,08,15,05,11,17.10
2008,08,15,05,12,17.10
2008,08,15,05,13,17.10
2008,08,15,05,14,17.10
2008,08,15,05,15,17.10
2008,08,15,05,16,17.00
2008,08,15,05,17,17.00
2008,08,15,05,18,17.00
2008,08,15,05,19,17.00
2008,08,15,05,20,17.00
2008,08,15,05,21,17.00
2008,08,15,05,22,17.00
2008,08,15,05,23,17.00
2008,08,15,05,24,17.00
2008,08,15,05,25,17.00
2008,08,15,05,26,17.00
2008,08,15,05,27,17.00
2008,08,15,05,28,17.00
2008,08,15,05,29,17.00
2008,08,15,05,30,17.00
2008,08,15,05,31,16.90
2008,08,15,05,32,16.90
2008,08,15,05,33,16.90
2008,08,15,05,34,16.90
2008,08,15,05,35,16.90
2008,08,15,05,36,16.90
2008,08,15,05,37,16.90
2008,08,15,05,38,16.80
2008,08,15,05,39,16.80
2008,08,15,05,40,16.80
2008,08,15,05,41,16.80
2008,08,15,05,42,16.80
2008,08,15,05,43,16.80
2008,08,15,05,44,16.80
2008,08,15,05,45,16.80
2008,08,15,05,46,16.80
2008,08,15,05,47,16.80
2008,08,15,05,48,16.80
2008,08,15,05,49,16.80
2008,08,15,05,50,16.80
2008,08,15,05,51,16.80
2008,08,15,05,52,16.80
2008,08,15,05,53,16.80
2008,08,15,05,54,16.80
2008,08,15,05,55,16.80
2008,08,15,05,56,16.80
2008,08,15,05,57,16.70
2008,08,15,05,58,16.70
2008,08,15,05,59,16.70
2008,08,15,06,00,16.70
2008,08,15,06,01,16.70
2008,08,15,06,02,16.70
2008,08,15,06,03,16.70
2008,08,15,06,04,16.70
2008,08,15,06,05,16.70
2008,08,15,06,06,16.70
2008,08,15,06,07,16.70
2008,08,15,06,08,16.70
2008,08,15,06,09,16.70
2008,08,15,06,10,16.70
2008,08,15,06,11,16.70
2008,08,15,06,12,16.70
2008,08,15,06,13,16.70
2008,08,15,06,14,16.70
2008,08,15,06,15,16.70
2008,08,15,06,16,16.70
2008,08,15,06,17,16.70
2008,08,15,06,18,16.70
2008,08,15,06,19,16.70
2008,08,15,06,20,16.60
2008,08,15,06,21,16.60
2008,08,15,06,22,16.60
2008,08,15,06,23,16.60
2008,08,15,06,24,16.60
2008,08,15,06,25,16.60
2008,08,15,06,26,16.60
2008,08,15,06,27,16.60
2008,08,15,06,28,16.60
2008,08,15,06,29,16.70
2008,08,15,06,30,16.70
2008,08,15,06,31,16.70
2008,08,15,06,32,16.70
2008,08,15,06,33,16.70
2008,08,15,06,34,16.70
2008,08,15,06,35,16.70
2008,08,15,06,36,16.70
2008,08,15,06,37,16.70
2008,08,15,06,38,16.70
2008,08,15,06,39,16.70
2008,08,15,06,40,16.70
2008,08,15,06,41,16.70
2008,08,15,06,42,16.70
2008,08,15,06,43,16.70
2008,08,15,06,44,16.70
2008,08,15,06,45,16.70
2008,08,15,06,46,16.70
2008,08,15,06,47,16.70
2008,08,15,06,48,16.70
2008,08,15,06,49,16.70
2008,08,15,06,50,16.70
2008,08,15,06,51,16.70
2008,08,15,06,52,16.70
2008,08,15,06,53,16.70
2008,08,15,06,54,16.70
2008,08,15,06,55,16.70
2008,08,15,06,56,16.70
2008,08,15,06,57,16.70
2008,08,15,06,58,16.70
2008,08,15,06,59,16.70
2008,08,15,07,00,16.70
2008,08,15,07,01,16.70
2008,08,15,07,02,16.70
2008,08,15,07,03,16.70
2008,08,15,07,04,16.70
2008,08,15,07,05,16.70
2008,08,15,07,06,16.70
2008,08,15,07,07,16.70
2008,08,15,07,08,16.70
2008,08,15,07,09,16.70
2008,08,15,07,10,16.70
2008,08,15,07,11,16.70
2008,08,15,07,12,16.80
2008,08,15,07,13,16.80
2008,08,15,07,14,16.80
2008,08,15,07,15,16.80
2008,08,15,07,16,16.80
2008,08,15,07,17,16.80
2008,08,15,07,18,16.80
2008,08,15,07,19,16.80
2008,08,15,07,20,16.80
2008,08,15,07,21,16.80
2008,08,15,07,22,16.80
2008,08,15,07,23,16.80
2008,08,15,07,24,16.80
2008,08,15,07,25,16.80
2008,08,15,07,26,16.80
2008,08,15,07,27,16.80
2008,08,15,07,28,16.80
2008,08,15,07,29,16.80
2008,08,15,07,30,16.80
2008,08,15,07,31,16.80
2008,08,15,07,32,16.80
2008,08,15,07,33,16.80
2008,08,15,07,34,16.80
2008,08,15,07,35,16.90
2008,08,15,07,36,16.90
2008,08,15,07,37,16.90
2008,08,15,07,38,17.00
2008,08,15,07,39,17.00
2008,08,15,07,40,17.10
2008,08,15,07,41,17.10
2008,08,15,07,42,17.20
2008,08,15,07,43,17.20
2008,08,15,07,44,17.30
2008,08,15,07,45,17.30
2008,08,15,07,46,17.30
2008,08,15,07,47,17.40
2008,08,15,07,48,17.40
2008,08,15,07,49,17.50
2008,08,15,07,50,17.50
2008,08,15,07,51,17.60
2008,08,15,07,52,17.60
2008,08,15,07,53,17.70
2008,08,15,07,54,17.70
2008,08,15,07,55,17.80
2008,08,15,07,56,17.80
2008,08,15,07,57,17.90
2008,08,15,07,58,18.00
2008,08,15,07,59,18.10
2008,08,15,08,00,18.10
2008,08,15,08,01,18.20
2008,08,15,08,02,18.20
2008,08,15,08,03,18.20
2008,08,15,08,04,18.30
2008,08,15,08,05,18.40
2008,08,15,08,06,18.50
2008,08,15,08,07,18.60
2008,08,15,08,08,18.70
2008,08,15,08,09,18.70
2008,08,15,08,10,18.80
2008,08,15,08,11,18.80
2008,08,15,08,12,18.90
2008,08,15,08,13,18.90
2008,08,15,08,14,18.90
2008,08,15,08,15,19.00
2008,08,15,08,16,19.00
2008,08,15,08,17,19.10
2008,08,15,08,18,19.10
2008,08,15,08,19,19.10
2008,08,15,08,20,19.20
2008,08,15,08,21,19.30
2008,08,15,08,22,19.30
2008,08,15,08,23,19.30
2008,08,15,08,24,19.40
2008,08,15,08,25,19.40
2008,08,15,08,26,19.40
2008,08,15,08,27,19.50
2008,08,15,08,28,19.60
2008,08,15,08,29,19.60
2008,08,15,08,30,19.70
2008,08,15,08,31,19.80
2008,08,15,08,32,19.80
2008,08,15,08,33,19.90
2008,08,15,08,34,20.00
2008,08,15,08,35,20.00
2008,08,15,08,36,20.10
2008,08,15,08,37,20.20
2008,08,15,08,38,20.30
2008,08,15,08,39,20.30
2008,08,15,08,40,20.50
2008,08,15,08,41,20.60
2008,08,15,08,42,20.80
2008,08,15,08,43,20.90
2008,08,15,08,44,21.00
2008,08,15,08,45,21.10
2008,08,15,08,46,21.20
2008,08,15,08,47,21.30
2008,08,15,08,48,21.40
2008,08,15,08,49,21.40
2008,08,15,08,50,21.40
2008,08,15,08,51,21.50
2008,08,15,08,52,21.50
2008,08,15,08,53,21.50
2008,08,15,08,54,21.50
2008,08,15,08,55,21.40
2008,08,15,08,56,21.50
2008,08,15,08,57,21.50
2008,08,15,08,58,21.60
2008,08,15,08,59,21.60
2008,08,15,09,00,21.70
2008,08,15,09,01,21.70
2008,08,15,09,02,21.80
2008,08,15,09,03,21.80
2008,08,15,09,04,21.90
2008,08,15,09,05,21.90
2008,08,15,09,06,21.90
2008,08,15,09,07,21.90
2008,08,15,09,08,21.90
2008,08,15,09,09,22.00
2008,08,15,09,10,22.00
2008,08,15,09,11,22.00
2008,08,15,09,12,22.00
2008,08,15,09,13,22.00
2008,08,15,09,14,22.10
2008,08,15,09,15,22.10
2008,08,15,09,16,22.10
2008,08,15,09,17,22.20
2008,08,15,09,18,22.20
2008,08,15,09,19,22.20
2008,08,15,09,20,22.20
2008,08,15,09,21,22.20
2008,08,15,09,22,22.30
2008,08,15,09,23,22.30
2008,08,15,09,24,22.30
2008,08,15,09,25,22.30
2008,08,15,09,26,22.30
2008,08,15,09,27,22.40
2008,08,15,09,28,22.40
2008,08,15,09,29,22.50
2008,08,15,09,30,22.50
2008,08,15,09,31,22.60
2008,08,15,09,32,22.60
2008,08,15,09,33,22.60
2008,08,15,09,34,22.70
2008,08,15,09,35,22.70
2008,08,15,09,36,22.70
2008,08,15,09,37,22.80
2008,08,15,09,38,22.80
2008,08,15,09,39,22.80
2008,08,15,09,40,22.80
2008,08,15,09,41,22.80
2008,08,15,09,42,22.80
2008,08,15,09,43,22.80
2008,08,15,09,44,22.80
2008,08,15,09,45,22.90
2008,08,15,09,46,22.90
2008,08,15,09,47,22.90
2008,08,15,09,48,23.00
2008,08,15,09,49,23.10
2008,08,15,09,50,23.10
2008,08,15,09,51,23.20
2008,08,15,09,52,23.20
2008,08,15,09,53,23.30
2008,08,15,09,54,23.30
2008,08,15,09,55,23.30
2008,08,15,09,56,23.40
2008,08,15,09,57,23.40
2008,08,15,09,58,23.50
2008,08,15,09,59,23.60
2008,08,15,10,00,23.60
2008,08,15,10,01,23.70
2008,08,15,10,02,23.80
2008,08,15,10,03,23.80
2008,08,15,10,04,23.90
2008,08,15,10,05,24.00
2008,08,15,10,06,24.10
2008,08,15,10,07,24.20
2008,08,15,10,08,24.30
2008,08,15,10,09,24.40
2008,08,15,10,10,24.40
2008,08,15,10,11,24.50
2008,08,15,10,12,24.70
2008,08,15,10,13,24.80
2008,08,15,10,14,24.90
2008,08,15,10,15,25.00
2008,08,15,10,16,25.10
2008,08,15,10,17,25.20
2008,08,15,10,18,25.20
2008,08,15,10,19,25.40
2008,08,15,10,20,25.50
2008,08,15,10,21,25.60
2008,08,15,10,22,25.60
2008,08,15,10,23,25.60
2008,08,15,10,24,25.70
2008,08,15,10,25,25.70
2008,08,15,10,26,25.70
2008,08,15,10,27,25.60
2008,08,15,10,28,25.60
2008,08,15,10,29,25.60
2008,08,15,10,30,25.60
2008,08,15,10,31,25.60
2008,08,15,10,32,25.60
2008,08,15,10,33,25.60
2008,08,15,10,34,25.60
2008,08,15,10,35,25.70
2008,08,15,10,36,25.70
2008,08,15,10,37,25.80
2008,08,15,10,38,25.80
2008,08,15,10,39,25.90
2008,08,15,10,40,25.90
2008,08,15,10,41,25.90
2008,08,15,10,42,25.90
2008,08,15,10,43,25.90
2008,08,15,10,44,25.90
2008,08,15,10,45,25.80
2008,08,15,10,46,25.80
2008,08,15,10,47,25.80
2008,08,15,10,48,25.80
2008,08,15,10,49,25.80
2008,08,15,10,50,25.90
2008,08,15,10,51,25.90
2008,08,15,10,52,25.90
2008,08,15,10,53,26.00
2008,08,15,10,54,26.00
2008,08,15,10,55,26.10
2008,08,15,10,56,26.10
2008,08,15,10,57,26.20
2008,08,15,10,58,26.20
2008,08,15,10,59,26.20
2008,08,15,11,00,26.20
2008,08,15,11,01,26.20
2008,08,15,11,02,26.20
2008,08,15,11,03,26.20
2008,08,15,11,04,26.20
2008,08,15,11,05,26.20
2008,08,15,11,06,26.20
2008,08,15,11,07,26.20
2008,08,15,11,08,26.20
2008,08,15,11,09,26.20
2008,08,15,11,10,26.30
2008,08,15,11,11,26.30
2008,08,15,11,12,26.30
2008,08,15,11,13,26.30
2008,08,15,11,14,26.30
2008,08,15,11,15,26.20
2008,08,15,11,16,26.20
2008,08,15,11,17,26.20
2008,08,15,11,18,26.20
2008,08,15,11,19,26.20
2008,08,15,11,20,26.20
2008,08,15,11,21,26.20
2008,08,15,11,22,26.10
2008,08,15,11,23,26.00
2008,08,15,11,24,25.90
2008,08,15,11,25,25.80
2008,08,15,11,26,25.70
2008,08,15,11,27,25.70
2008,08,15,11,28,25.70
2008,08,15,11,29,25.60
2008,08,15,11,30,25.70
2008,08,15,11,31,25.70
2008,08,15,11,32,25.70
2008,08,15,11,33,25.70
2008,08,15,11,34,25.70
2008,08,15,11,35,25.80
2008,08,15,11,36,25.80
2008,08,15,11,37,25.80
2008,08,15,11,38,25.80
2008,08,15,11,39,25.80
2008,08,15,11,40,25.90
2008,08,15,11,41,25.90
2008,08,15,11,42,25.90
2008,08,15,11,43,26.00
2008,08,15,11,44,26.10
2008,08,15,11,45,26.10
2008,08,15,11,46,26.20
2008,08,15,11,47,26.30
2008,08,15,11,48,26.30
2008,08,15,11,49,26.40
2008,08,15,11,50,26.40
2008,08,15,11,51,26.50
2008,08,15,11,52,26.60
2008,08,15,11,53,26.60
2008,08,15,11,54,26.70
2008,08,15,11,55,26.70
2008,08,15,11,56,26.80
2008,08,15,11,57,26.90
2008,08,15,11,58,27.00
2008,08,15,11,59,27.10
2008,08,15,12,00,27.20
2008,08,15,12,01,27.30
2008,08,15,12,02,27.40
2008,08,15,12,03,27.50
2008,08,15,12,04,27.50
2008,08,15,12,05,27.60
2008,08,15,12,06,27.60
2008,08,15,12,07,27.50
2008,08,15,12,08,27.40
2008,08,15,12,09,27.40
2008,08,15,12,10,27.40
2008,08,15,12,11,27.30
2008,08,15,12,12,27.20
2008,08,15,12,13,27.00
2008,08,15,12,14,27.00
2008,08,15,12,15,27.00
2008,08,15,12,16,27.00
2008,08,15,12,17,27.10
2008,08,15,12,18,27.10
2008,08,15,12,19,27.20
2008,08,15,12,20,27.20
2008,08,15,12,21,27.30
2008,08,15,12,22,27.30
2008,08,15,12,23,27.40
2008,08,15,12,24,27.50
2008,08,15,12,25,27.60
2008,08,15,12,26,27.70
2008,08,15,12,27,27.70
2008,08,15,12,28,27.70
2008,08,15,12,29,27.70
2008,08,15,12,30,27.70
2008,08,15,12,31,27.80
2008,08,15,12,32,27.80
2008,08,15,12,33,27.80
2008,08,15,12,34,27.80
2008,08,15,12,35,27.80
2008,08,15,12,36,27.90
2008,08,15,12,37,27.90
2008,08,15,12,38,27.90
2008,08,15,12,39,28.00
2008,08,15,12,40,28.00
2008,08,15,12,41,28.00
2008,08,15,12,42,27.90
2008,08,15,12,43,27.80
2008,08,15,12,44,27.80
2008,08,15,12,45,27.70
2008,08,15,12,46,27.70
2008,08,15,12,47,27.70
2008,08,15,12,48,27.80
2008,08,15,12,49,27.80
2008,08,15,12,50,27.80
2008,08,15,12,51,27.80
2008,08,15,12,52,27.80
2008,08,15,12,53,27.70
2008,08,15,12,54,27.70
2008,08,15,12,55,27.70
2008,08,15,12,56,27.70
2008,08,15,12,57,27.70
2008,08,15,12,58,27.70
2008,08,15,12,59,27.60
2008,08,15,13,00,27.60
2008,08,15,13,01,27.60
2008,08,15,13,02,27.60
2008,08,15,13,03,27.50
2008,08,15,13,04,27.40
2008,08,15,13,05,27.30
2008,08,15,13,06,27.30
2008,08,15,13,07,27.20
2008,08,15,13,08,27.20
2008,08,15,13,09,27.10
2008,08,15,13,10,27.00
2008,08,15,13,11,27.00
2008,08,15,13,12,26.90
2008,08,15,13,13,26.90
2008,08,15,13,14,26.80
2008,08,15,13,15,26.80
2008,08,15,13,16,26.80
2008,08,15,13,17,26.80
2008,08,15,13,18,26.70
2008,08,15,13,19,26.70
2008,08,15,13,20,26.70
2008,08,15,13,21,26.70
2008,08,15,13,22,26.70
2008,08,15,13,23,26.70
2008,08,15,13,24,26.80
2008,08,15,13,25,26.80
2008,08,15,13,26,26.80
2008,08,15,13,27,26.90
2008,08,15,13,28,26.90
2008,08,15,13,29,26.80
2008,08,15,13,30,26.80
2008,08,15,13,31,26.90
2008,08,15,13,32,26.90
2008,08,15,13,33,26.90
2008,08,15,13,34,26.90
2008,08,15,13,35,27.00
2008,08,15,13,36,26.90
2008,08,15,13,37,27.00
2008,08,15,13,38,26.90
2008,08,15,13,39,26.90
2008,08,15,13,40,26.90
2008,08,15,13,41,26.90
2008,08,15,13,42,26.90
2008,08,15,13,43,26.90
2008,08,15,13,44,26.90
2008,08,15,13,45,26.90
2008,08,15,13,46,26.90
2008,08,15,13,47,26.90
2008,08,15,13,48,26.90
2008,08,15,13,49,26.90
2008,08,15,13,50,26.90
2008,08,15,13,51,26.90
2008,08,15,13,52,27.00
2008,08,15,13,53,26.90
2008,08,15,13,54,26.90
2008,08,15,13,55,27.00
2008,08,15,13,56,27.00
2008,08,15,13,57,27.10
2008,08,15,13,58,27.10
2008,08,15,13,59,27.10
2008,08,15,14,00,27.10
2008,08,15,14,01,27.20
2008,08,15,14,02,27.10
2008,08,15,14,03,27.00
2008,08,15,14,04,27.00
2008,08,15,14,05,27.00
2008,08,15,14,06,26.90
2008,08,15,14,07,26.90
2008,08,15,14,08,26.90
2008,08,15,14,09,26.90
2008,08,15,14,10,26.90
2008,08,15,14,11,26.90
2008,08,15,14,12,26.90
2008,08,15,14,13,26.90
2008,08,15,14,14,26.90
2008,08,15,14,15,26.90
2008,08,15,14,16,26.90
2008,08,15,14,17,27.00
2008,08,15,14,18,27.00
2008,08,15,14,19,27.00
2008,08,15,14,20,27.00
2008,08,15,14,21,27.00
2008,08,15,14,22,27.00
2008,08,15,14,23,27.00
2008,08,15,14,24,26.90
2008,08,15,14,25,26.90
2008,08,15,14,26,26.80
2008,08,15,14,27,26.80
2008,08,15,14,28,26.80
2008,08,15,14,29,26.80
2008,08,15,14,30,26.80
2008,08,15,14,31,26.80
2008,08,15,14,32,26.70
2008,08,15,14,33,26.70
2008,08,15,14,34,26.70
2008,08,15,14,35,26.60
2008,08,15,14,36,26.60
2008,08,15,14,37,26.60
2008,08,15,14,38,26.60
2008,08,15,14,39,26.60
2008,08,15,14,40,26.60
2008,08,15,14,41,26.60
2008,08,15,14,42,26.60
2008,08,15,14,43,26.70
2008,08,15,14,44,26.70
2008,08,15,14,45,26.80
2008,08,15,14,46,26.80
2008,08,15,14,47,26.80
2008,08,15,14,48,27.00
2008,08,15,14,49,27.10
2008,08,15,14,50,27.30
2008,08,15,14,51,27.30
2008,08,15,14,52,27.40
2008,08,15,14,53,27.40
2008,08,15,14,54,27.40
2008,08,15,14,55,27.40
2008,08,15,14,56,27.50
2008,08,15,14,57,27.50
2008,08,15,14,58,27.50
2008,08,15,14,59,27.50
2008,08,15,15,00,27.50
2008,08,15,15,01,27.50
2008,08,15,15,02,27.60
2008,08,15,15,03,27.60
2008,08,15,15,04,27.60
2008,08,15,15,05,27.60
2008,08,15,15,06,27.50
2008,08,15,15,07,27.50
2008,08,15,15,08,27.30
2008,08,15,15,09,27.20
2008,08,15,15,10,27.10
2008,08,15,15,11,27.00
2008,08,15,15,12,27.00
2008,08,15,15,13,27.00
2008,08,15,15,14,27.00
2008,08,15,15,15,27.00
2008,08,15,15,16,27.00
2008,08,15,15,17,27.10
2008,08,15,15,18,27.10
2008,08,15,15,19,27.10
2008,08,15,15,20,27.10
2008,08,15,15,21,27.10
2008,08,15,15,22,27.00
2008,08,15,15,23,27.00
2008,08,15,15,24,27.00
2008,08,15,15,25,26.90
2008,08,15,15,26,26.90
2008,08,15,15,27,26.90
2008,08,15,15,28,27.00
2008,08,15,15,29,27.00
2008,08,15,15,30,27.00
2008,08,15,15,31,27.00
2008,08,15,15,32,27.10
2008,08,15,15,33,27.10
2008,08,15,15,34,27.10
2008,08,15,15,35,27.20
2008,08,15,15,36,27.20
2008,08,15,15,37,27.20
2008,08,15,15,38,27.20
2008,08,15,15,39,27.20
2008,08,15,15,40,27.20
2008,08,15,15,41,27.20
2008,08,15,15,42,27.20
2008,08,15,15,43,27.30
2008,08,15,15,44,27.40
2008,08,15,15,45,27.50
2008,08,15,15,46,27.50
2008,08,15,15,47,27.60
2008,08,15,15,48,27.70
2008,08,15,15,49,27.80
2008,08,15,15,50,27.90
2008,08,15,15,51,28.00
2008,08,15,15,52,28.10
2008,08,15,15,53,28.20
2008,08,15,15,54,28.30
2008,08,15,15,55,28.20
2008,08,15,15,56,28.10
2008,08,15,15,57,28.10
2008,08,15,15,58,28.00
2008,08,15,15,59,27.90
2008,08,15,16,00,27.90
2008,08,15,16,01,27.80
2008,08,15,16,02,27.70
2008,08,15,16,03,27.60
2008,08,15,16,04,27.50
2008,08,15,16,05,27.50
2008,08,15,16,06,27.50
2008,08,15,16,07,27.50
2008,08,15,16,08,27.50
2008,08,15,16,09,27.60
2008,08,15,16,10,27.60
2008,08,15,16,11,27.70
2008,08,15,16,12,27.80
2008,08,15,16,13,27.90
2008,08,15,16,14,28.00
2008,08,15,16,15,28.10
2008,08,15,16,16,28.20
2008,08,15,16,17,28.20
2008,08,15,16,18,28.30
2008,08,15,16,19,28.30
2008,08,15,16,20,28.30
2008,08,15,16,21,28.30
2008,08,15,16,22,28.30
2008,08,15,16,23,28.30
2008,08,15,16,24,28.30
2008,08,15,16,25,28.30
2008,08,15,16,26,28.30
2008,08,15,16,27,28.30
2008,08,15,16,28,28.20
2008,08,15,16,29,28.20
2008,08,15,16,30,28.20
2008,08,15,16,31,28.10
2008,08,15,16,32,28.10
2008,08,15,16,33,28.00
2008,08,15,16,34,28.00
2008,08,15,16,35,27.90
2008,08,15,16,36,27.90
2008,08,15,16,37,27.90
2008,08,15,16,38,27.80
2008,08,15,16,39,27.80
2008,08,15,16,40,27.90
2008,08,15,16,41,27.90
2008,08,15,16,42,27.90
2008,08,15,16,43,27.80
2008,08,15,16,44,27.80
2008,08,15,16,45,27.80
2008,08,15,16,46,27.70
2008,08,15,16,47,27.60
2008,08,15,16,48,27.40
2008,08,15,16,49,27.30
2008,08,15,16,50,27.20
2008,08,15,16,51,27.10
2008,08,15,16,52,27.00
2008,08,15,16,53,26.90
2008,08,15,16,54,26.90
2008,08,15,16,55,26.90
2008,08,15,16,56,26.90
2008,08,15,16,57,26.90
2008,08,15,16,58,26.90
2008,08,15,16,59,26.90
2008,08,15,17,00,27.00
2008,08,15,17,01,27.00
2008,08,15,17,02,27.10
2008,08,15,17,03,27.10
2008,08,15,17,04,27.10
2008,08,15,17,05,27.10
2008,08,15,17,06,27.20
2008,08,15,17,07,27.20
2008,08,15,17,08,27.20
2008,08,15,17,09,27.20
2008,08,15,17,10,27.20
2008,08,15,17,11,27.20
2008,08,15,17,12,27.20
2008,08,15,17,13,27.20
2008,08,15,17,14,27.20
2008,08,15,17,15,27.20
2008,08,15,17,16,27.20
2008,08,15,17,17,27.20
2008,08,15,17,18,27.20
2008,08,15,17,19,27.20